Wind_Speed
65 65 68 73 76 78 80 82 82 85 85 87 88 91 94 99 99 101 97 102 102 105 108 109 104 101 100 101 100 95 87 78
67 68 70 75 79 81 83 86 86 88 90 91 93 94 99 100 104 103 103 105 105 111 110 111 107 105 105 105 103 95 84 75
69 70 74 78 82 83 87 90 91 94 95 95 98 99 103 105 108 106 107 110 110 117 115 113 110 109 108 107 98 88 77 69
70 73 77 81 85 87 90 92 95 98 99 100 101 103 107 111 111 110 113 115 117 120 119 117 115 115 109 103 91 80 69 64
72 74 79 84 88 90 94 96 98 101 103 103 104 107 110 115 114 115 116 118 122 123 122 122 119 115 110 95 81 72 63 58
74 78 84 89 91 94 97 98 101 103 104 105 107 110 114 119 117 119 119 121 126 126 126 125 122 115 100 87 75 65 57 51
80 85 89 92 95 97 99 101 104 106 106 108 109 114 118 121 122 122 120 125 129 127 130 129 124 112 94 80 67 59 51 45
83 88 93 95 97 101 102 104 106 107 108 111 113 118 122 122 126 126 125 128 133 132 133 129 121 104 89 74 62 54 46 41
88 92 95 98 100 102 103 106 109 108 111 113 118 122 124 124 128 129 129 133 135 136 136 130 117 99 82 69 57 47 42 38
91 94 97 100 102 105 107 109 111 112 115 118 122 125 126 128 130 129 131 138 138 140 137 131 113 95 78 64 51 42 38 36
94 96 100 103 104 108 109 112 112 114 118 121 124 127 129 133 132 134 135 140 140 141 137 128 111 93 73 56 46 39 35 36
96 100 103 105 108 112 113 114 114 116 121 125 127 131 133 137 136 136 138 142 142 142 135 123 103 89 70 50 42 36 33 36
100 104 106 109 112 115 116 117 118 121 126 129 132 133 136 137 138 138 140 145 144 141 134 115 96 80 67 52 40 35 32 33
104 107 109 112 115 117 118 117 119 126 129 130 134 136 137 139 139 142 144 146 144 138 128 107 91 74 66 56 40 34 31 33
107 110 112 115 118 118 118 118 123 131 133 134 138 140 138 138 140 144 147 146 141 134 120 100 86 71 63 57 45 32 33 33
110 113 115 117 118 119 118 122 130 135 134 137 138 140 139 137 143 146 149 146 139 129 111 96 79 69 62 55 46 37 31 35
112 114 117 118 119 119 120 126 134 134 138 139 137 139 140 141 147 148 146 143 135 123 104 90 76 67 59 53 45 39 32 34
114 116 118 118 119 118 122 131 136 135 138 139 138 141 140 143 149 149 144 141 131 115 101 84 76 65 54 47 43 36 34 32
115 117 117 119 117 119 127 134 135 139 140 138 137 141 142 145 150 148 144 136 125 108 94 82 72 60 51 45 38 35 30 33
115 116 118 116 118 124 132 136 140 140 136 136 140 143 144 148 150 145 138 130 117 102 86 78 69 56 49 42 35 31 29 32
Wind_Direction
329 329 329 334 336 338 337 337 336 337 337 337 337 338 339 337 338 335 336 335 334 330 330 326 325 323 322 319 317 312 306 299
326 324 326 330 333 335 334 334 334 335 336 337 337 339 337 336 337 335 335 334 332 331 328 327 325 324 322 319 316 310 301 292
323 322 323 326 330 332 332 333 333 334 335 337 337 338 335 335 336 334 334 333 332 331 328 327 325 324 322 318 313 304 296 288
321 322 324 325 327 329 330 332 332 334 335 336 336 336 334 334 336 334 333 333 332 331 329 327 325 324 321 317 310 301 294 285
320 322 323 325 327 329 330 331 332 334 334 336 336 334 333 333 334 334 332 334 332 330 328 327 326 324 320 314 307 300 293 284
319 320 322 326 327 328 329 330 331 333 333 335 335 333 333 331 333 332 332 334 332 330 328 327 327 324 320 314 307 299 292 282
317 320 323 326 327 327 328 329 330 331 332 333 333 331 332 331 332 332 333 333 331 329 329 329 327 325 321 314 307 298 290 279
320 320 323 325 326 326 328 328 329 330 331 332 331 331 331 332 331 332 333 333 331 330 330 329 328 326 322 315 307 296 285 272
319 320 322 324 325 325 326 327 328 330 330 331 330 331 331 331 331 332 333 331 332 331 331 331 329 327 323 318 309 296 281 266
317 319 321 323 324 324 325 326 328 330 330 330 330 330 331 331 331 332 332 332 333 332 332 331 330 328 325 320 312 297 279 259
317 319 321 321 323 323 325 325 328 329 329 329 328 330 330 329 332 331 332 332 333 333 333 332 330 327 324 320 313 299 279 257
318 319 320 321 322 323 324 326 328 328 328 328 328 329 330 329 331 330 332 332 332 333 333 332 329 326 323 319 311 299 280 257
317 319 320 321 322 322 325 326 326 327 327 329 329 329 329 330 331 330 332 332 332 333 333 331 328 325 320 318 310 298 280 259
316 319 320 321 321 323 325 325 325 325 326 327 328 328 329 330 330 331 332 331 333 333 332 331 328 323 317 314 310 293 279 260
317 318 319 320 322 323 323 323 323 324 326 327 328 328 329 329 330 330 331 331 333 332 332 330 326 321 315 310 306 293 275 259
315 316 318 320 321 322 321 322 322 323 325 327 327 328 328 329 328 330 331 331 333 332 331 329 324 319 312 306 301 291 269 258
314 316 317 319 319 319 319 320 321 323 325 325 326 327 327 328 329 330 330 331 332 331 330 328 323 317 311 305 299 287 270 251
314 315 317 317 318 318 318 319 321 323 325 326 325 327 327 327 329 330 330 331 332 331 329 328 323 318 313 305 298 287 270 248
313 315 315 316 316 316 317 318 321 323 324 324 326 327 326 327 328 329 329 331 332 331 330 328 323 321 314 308 299 286 267 252
313 314 314 315 314 314 316 318 321 322 322 324 325 326 325 326 327 328 330 331 332 330 330 328 325 322 317 310 302 284 266 247
Height
10854 10847 10839 10831 10823 10815 10807 10798 10789 10780 10770 10759 10747 10734 10723 10708 10697 10683 10671 10657 10644 10631 10617 10600 10586 10573 10557 10542 10529 10517 10506 10497
10848 10841 10833 10825 10815 10806 10798 10789 10780 10770 10757 10744 10731 10718 10706 10695 10680 10666 10653 10639 10625 10612 10595 10577 10561 10547 10533 10515 10501 10488 10480 10471
10840 10831 10824 10816 10807 10798 10788 10776 10764 10752 10742 10728 10715 10701 10688 10677 10664 10648 10635 10622 10606 10590 10571 10554 10536 10522 10508 10490 10475 10461 10451 10444
10831 10823 10814 10806 10796 10787 10776 10764 10752 10740 10726 10713 10700 10686 10673 10659 10645 10629 10616 10600 10582 10564 10548 10529 10512 10496 10478 10462 10444 10430 10422 10417
10822 10814 10806 10796 10784 10773 10762 10750 10740 10726 10712 10699 10686 10672 10659 10645 10630 10614 10597 10580 10559 10540 10523 10507 10490 10469 10449 10430 10416 10403 10396 10391
10811 10804 10795 10783 10773 10761 10750 10738 10726 10714 10700 10686 10672 10659 10645 10629 10613 10596 10578 10560 10540 10517 10498 10479 10460 10441 10421 10401 10387 10376 10371 10368
10801 10792 10782 10771 10760 10750 10738 10726 10714 10702 10687 10674 10660 10646 10630 10612 10595 10578 10559 10541 10521 10498 10474 10452 10430 10409 10390 10374 10362 10352 10349 10347
10791 10780 10771 10760 10750 10737 10725 10714 10702 10690 10677 10660 10646 10630 10613 10595 10576 10558 10541 10520 10499 10474 10451 10428 10403 10380 10363 10348 10338 10330 10328 10329
10781 10771 10760 10749 10738 10727 10716 10704 10691 10676 10662 10646 10630 10613 10594 10577 10559 10541 10521 10500 10476 10452 10425 10399 10376 10357 10341 10326 10316 10310 10309 10311
10772 10762 10751 10739 10727 10715 10702 10689 10675 10660 10644 10630 10613 10595 10577 10559 10540 10521 10499 10476 10451 10426 10400 10372 10351 10336 10321 10308 10299 10293 10291 10294
10761 10750 10739 10727 10715 10702 10690 10677 10662 10646 10630 10614 10597 10578 10559 10540 10520 10499 10478 10454 10430 10405 10379 10351 10329 10315 10306 10295 10286 10279 10277 10280
10750 10739 10726 10713 10699 10686 10673 10660 10647 10632 10615 10596 10577 10558 10539 10518 10500 10477 10458 10434 10409 10383 10360 10336 10316 10297 10287 10283 10275 10268 10264 10265
10738 10725 10711 10699 10684 10668 10654 10639 10625 10611 10595 10578 10558 10539 10520 10501 10481 10459 10436 10412 10389 10365 10342 10321 10300 10283 10270 10267 10263 10256 10252 10253
10723 10711 10697 10683 10669 10653 10639 10623 10609 10592 10577 10561 10543 10523 10502 10481 10460 10438 10415 10391 10369 10346 10324 10301 10284 10270 10255 10249 10249 10244 10239 10237
10710 10697 10684 10669 10653 10639 10622 10608 10593 10575 10559 10541 10523 10502 10482 10461 10439 10418 10396 10373 10351 10328 10306 10286 10265 10254 10242 10233 10230 10230 10225 10223
10697 10684 10671 10657 10639 10625 10608 10591 10575 10558 10542 10524 10504 10485 10464 10444 10421 10398 10374 10352 10331 10309 10288 10269 10251 10237 10225 10216 10214 10211 10211 10210
10684 10671 10657 10642 10627 10611 10594 10576 10560 10544 10526 10506 10486 10466 10445 10424 10402 10379 10354 10332 10310 10288 10267 10249 10233 10220 10208 10198 10195 10194 10194 10195
10671 10658 10644 10629 10614 10596 10580 10562 10545 10528 10509 10488 10467 10447 10425 10404 10380 10357 10333 10311 10289 10265 10246 10228 10212 10200 10190 10182 10177 10176 10175 10179
10659 10646 10630 10616 10600 10581 10564 10548 10531 10514 10494 10472 10451 10429 10407 10384 10360 10337 10314 10291 10268 10246 10227 10209 10194 10182 10171 10164 10162 10158 10160 10162
10646 10632 10616 10602 10583 10567 10550 10534 10517 10498 10476 10455 10435 10413 10389 10366 10341 10318 10294 10271 10247 10227 10208 10191 10178 10165 10155 10148 10146 10144 10145 10147